Regional Weather Roundup
Issued by NWS

Home | Current Version | Previous Version | Text Only | Print | Product List | Glossary Off
Versions: 1 2 3 4 5 6 7 8 9 10 11 12 13 14 15 16 17 18 19 20 21 22 23 24 25 26 27 28 29 30 31 32 33 34 35 36 37 38 39 40 41 42 43 44 45 46 47 48 49 50

000
ASUS43 KFSD 011002
RWRSD

WEATHER ROUNDUP FOR SOUTH DAKOTA
NATIONAL WEATHER SERVICE SIOUX FALLS SD
500 AM CDT WED APR 01 2015

NOTE: "FAIR" INDICATES FEW OR NO CLOUDS BELOW 12,000 FEET WITH NO
SIGNIFICANT WEATHER AND/OR OBSTRUCTIONS TO VISIBILITY.


SDZ001>005-009-010-012>017-011100-
NORTHWEST AND NORTH CENTRAL SOUTH DAKOTA

CITY           SKY/WX    TMP DP  RH WIND       PRES   REMARKS
BUFFALO          N/A     55  28  35 NW25      29.42R
FAITH            N/A     62  21  20 S13       29.41F
MOBRIDGE       CLOUDY    51  30  44 SE12      29.40F
$$

SDZ012>016-024>037-041>051-057-063-072>074-011100-
SOUTHWEST AND SOUTH CENTRAL SOUTH DAKOTA

CITY           SKY/WX    TMP DP  RH WIND       PRES   REMARKS
RAPID CTY ARPT MOCLDY    51  23  33 S7        29.47F
PIERRE         CLOUDY    50  28  42 SE6       29.44F
CUSTER         MOCLDY    57  17  21 W9        29.61F
ELLSWORTH AFB  MOCLDY    57  21  25 SW6       29.46F
PHILIP         CLOUDY    61  19  19 SW9       29.44F
PINE RIDGE     PTCLDY    58  20  22 S10       29.55F
SPEARFISH      FAIR      66  19  16 W22G30    29.55R
WINNER         FAIR      62  27  26 S23G31    29.51F
$$

SDZ004>011-016>023-039-040-011100-
NORTHEAST SOUTH DAKOTA

CITY           SKY/WX    TMP DP  RH WIND       PRES   REMARKS
ABERDEEN       CLOUDY    49  32  52 S10       29.51F
WATERTOWN      CLOUDY    50  33  52 S14       29.59F
BROOKINGS      PTCLDY    50  32  50 S12       29.65F
SISSETON         N/A     44  35  70 S12       29.54F
$$

SDZ017-020-022-023-036>040-048>070-011100-
SOUTHEAST SOUTH DAKOTA

CITY           SKY/WX    TMP DP  RH WIND       PRES   REMARKS
SIOUX FALLS    CLEAR     57  31  37 S20       29.67F
HURON          MOCLDY    53  33  46 S17       29.54F
MITCHELL       PTCLDY    55  33  43 S17       29.58F
YANKTON        PTCLDY    59  32  36 S20G28    29.67S
$$

ABBREVIATIONS USED IN REMARKS
   TC - TEMPERATURE IN CELSIUS
  WCI - WIND CHILL INDEX
   HX - HEAT INDEX
  VSB - VISIBILITY



USA.gov is the U.S. government's official web portal to all federal, state and local government web resources and services.